Погода в Новокиевском Увале

Россия / Амурская область     51°39′31″N   128°55′03″E
темп.,
°C
ветер,
м/с
пор.,
м/с
влажн.,
%
обл.,
%
осадки,
мм/ч
давл.,
гПа
погр.,
м
15 апреля, чт
чт1500:00−6зюз11570 0.0 100910
03:00−7зюз115778 0.0 100913
06:00−7зюз11565 0.0 100916
09:00+1зюз243197 0.0 1010837
12:00+5з352760 0.0 10092275
15:00+6сз352498 0.0 10092332
18:00+5зсз1134100 0.0 101018
21:00+1всв1244100 0.0 101323
16 апреля, пт
пт1600:00−1вюв265674 0.0 1013123
03:00−2всв2359100 0.0 101363
06:00−1всв3757100 0.0 1013186
09:00+3всв4940100 0.0 1013578
12:00+6всв573199 0.0 10121707
15:00+7всв5631100 0.0 10111733
18:00+6в474795 0.0 10121279
21:00+2св397537 0.0 1013303
17 апреля, сб
сб1700:00+1св3980100 0.0 1012339
03:000ссв397380 0.1 1012298
06:000ссв397197 0.0 1012337
09:00+3ссв355183 0.0 1013521
12:00+10с22365 0.0 10121262
15:00+12сз12285 0.0 10111710
18:00+11зюз22305 0.0 10111585
21:00+6ююз38665 0.0 1013263
18 апреля, вс
вс1800:00+3ююз28900 0.0 1013217
03:00+2ю29930 0.0 1013211
06:00+1ю29950 0.0 1013224
09:00+8ю46614 0.0 1012606
12:00+13ю45375 0.0 10101162
15:00+15ююз333148 0.0 10091512
18:00+14ююз223562 0.0 1009646
21:00+8ююв225384 0.0 101111
19 апреля, пн
пн1900:00+7ююв1159100 0.0 101110
03:00+5юв116575 0.0 101010
06:00+4вюв117466 0.0 101111
09:00+12юв124771 0.0 1010473
12:00+16ю233324 0.0 10071613
15:00+17ююз342843 0.0 10052075
18:00+16ю253546 0.0 1004425
21:00+10сз71249100 0.1 10081246